Location: Newark
(58.8333°N, 23.5833°E)
Time: 14:59:56
(UTC+00:00)

Explorer 7 - Pass Details

Date: 23 November 2019
Orbit: 485 x 680 km, 50.3° (Epoch: 11 December)

Event Time Altitude Azimuth Distance (km) Brightness Sun altitude
Rises 21:52:05 0° 225° (SW) 2,964 - -51.4°
Reaches altitude 10° 21:54:54 10° 210° (SSW) 2,025 - -51.5°
Maximum altitude 21:58:24 21° 161° (SSE) 1,385 - -51.5°
Drops below altitude 10° 22:01:46 10° 112° (ESE) 1,940 - -51.5°
Sets 22:04:24 0° 96° (E) 2,803 - -51.6°
